Regional Weather Roundup
Issued by NWS

Home | Current Version | Previous Version | Graphics & Text | Print | Product List | Glossary On
Versions: 1 2 3 4 5 6 7 8 9 10 11 12 13 14 15 16 17 18 19 20 21 22 23 24 25 26 27
000
ASUS45 KBOU 151406
RWRCO

WEATHER ROUNDUP FOR COLORADO
NATIONAL WEATHER SERVICE DENVER/BOULDER CO
800 AM MDT TUE APR 15 2014

NOTE: "FAIR" INDICATES FEW OR NO CLOUDS BELOW 12000 FEET WITH NO
SIGNIFICANT WEATHER AND/OR OBSTRUCTIONS TO VISIBILITY.

COZ001>005-013-030-031-151500-
...NORTHWEST COLORADO...

CITY           SKY/WX    TMP DP  RH WIND       PRES   REMARKS
CRAIG          PTSUNNY   29  17  61 NE9       30.12F WCI  20
HAYDEN         MOSUNNY   25  18  74 E15       30.14F WCI  12
MEEKER         PTSUNNY   28  18  66 CALM      30.15F
MOUNT WERNER   MOSUNNY   25  10  54 SW13      30.14S WCI  13
STEAMBOAT SPGS MOSUNNY   21  15  77 CALM      30.13F
WALDEN         MOSUNNY   21  10  63 SE14      30.08F WCI   8
$$

COZ006>008-011-151500-
...WEST CENTRAL VALLEYS...

CITY           SKY/WX    TMP DP  RH WIND       PRES   REMARKS
GRAND JUNCTION MOSUNNY   34  22  61 E13       30.17F WCI  25
MONTROSE       SUNNY     30  18  60 SE7       30.23F WCI  23
EAGLE          MOSUNNY   23  19  86 CALM      30.23F
RIFLE          MOSUNNY   27  22  81 N3        30.20F
DELTA          SUNNY     33  24  69 NE3       30.23S
NUCLA            N/A     30  19  64 E8        30.22F WCI  23
$$

COZ017>023-064>068-151500-
...SOUTHWEST COLORADO...

CITY           SKY/WX    TMP DP  RH WIND       PRES   REMARKS
DURANGO        MOSUNNY   27   8  44 CALM      30.20R
CORTEZ         SUNNY     28  16  60 NE7       30.20S WCI  21
PAGOSA SPRINGS MOSUNNY   29  10  43 CALM      30.20S
TELLURIDE      SUNNY     27   9  46 E5        30.20F WCI  21
WOLF CREEK PAS MOSUNNY   27  -2  28 SW8       30.22R WCI  18
$$

COZ009-010-012-014-032>034-037-058>063-151500-
...CENTRAL COLORADO...

CITY           SKY/WX    TMP DP  RH WIND       PRES   REMARKS
ASPEN          SUNNY     26  15  63 N3        30.17F
BUENA VISTA    MOSUNNY   27  13  56 CALM      30.15F
COPPER MTN     SUNNY     19   7  58 W13G25    30.15S WCI   7
BERTHOUD PASS  FAIR      10   1  67 W39       30.05S WCI -14
COTTONWOOD PAS MOSUNNY   32   5  32 N3        30.14S
GUNNISON       SUNNY     21  12  68 CALM      30.27S
KREMMLING      SUNNY     18  10  73 E3        30.19F
LEADVILLE      SUNNY     20   6  55 CALM      30.14F
MONARCH PASS   MOSUNNY   14   5  67 W31       30.25F WCI  -7
SALIDA         MOSUNNY   34  10  37 NW10      30.22S WCI  26
SUNLIGHT       SUNNY     21  16  79 CALM      30.18F
WILKERSON PASS MOSUNNY   21   5  49 W10G18    30.14S WCI  10
$$

COZ069>075-151500-
...SAN LUIS VALLEY/SANGRE DE CRISTO MOUNTAINS...

CITY           SKY/WX    TMP DP  RH WIND       PRES   REMARKS
ALAMOSA        MOSUNNY   28  18  66 SW7       30.19S WCI  21
LA VETA PASS   MOSUNNY   25   1  36 SW21G30   30.12F WCI  10
SAGUACHE       MOSUNNY   30   3  31 NW12      30.19S WCI  21
$$

COZ035-036-038>040-151500-
...NORTHERN COLORADO FRONT RANGE...

CITY           SKY/WX    TMP DP  RH WIND       PRES   REMARKS
DENVER INTL AP MOSUNNY   41  19  41 SW16      29.97F
DMNS CITY PARK   N/A     43  14  31 SE7       29.97F
AURORA         MOSUNNY   39  19  45 S12       29.99F
FRONT RANGE AP NOT AVBL
ERIE MUNI ARPT MOSUNNY   45  20  36 S5        29.96F
BOULDER MUN AP MOSUNNY   50  16  25 SW6       29.95F
CENTENNIAL     MOSUNNY   42  17  36 SW15      29.99F
BROOMFIELD     MOSUNNY   37  21  52 CALM      29.98F
FORT COLLINS   MOSUNNY   30  25  80 CALM      29.98S
LONGMONT       MOSUNNY   35  29  80 CALM      29.97F
$$

COZ041-046-047-076>085-087-088-151500-
...PIKES PEAK/PALMER DIVIDE AND SOUTHERN FOOTHILLS...

CITY           SKY/WX    TMP DP  RH WIND       PRES   REMARKS
COLO. SPRINGS  MOSUNNY   36  26  67 N7        30.04F
A. F. ACADEMY  MOSUNNY   35  18  50 VRB3      30.03F
ELLICOTT       NOT AVBL
FALCON         MOSUNNY   36  21  53 W7        30.05S
FORT CARSON    MOSUNNY   31  24  77 N2        30.03F
LIMON          SUNNY     31  25  78 N3        30.02F
MONUMENT HILL  SUNNY     36  18  48 SW7       30.02F
TRINIDAD       SUNNY     33  24  69 W10       30.09F WCI  25
$$

COZ042>045-048>051-090-091-151500-
...NORTHEAST COLORADO...

CITY           SKY/WX    TMP DP  RH WIND       PRES   REMARKS
GREELEY ARPT   MOSUNNY   28  19  69 CALM      29.98F
AKRON          SUNNY     34  22  61 SW14      29.97F WCI  25
BURLINGTON     SUNNY     37  22  54 SW17      30.04F
WRAY           SUNNY     36  27  70 SW10      29.99F
STERLING       SUNNY     32  30  93 SW6       29.97F WCI  26
HOLYOKE        SUNNY     34  28  80 SW8       29.97F WCI  27
FORT MORGAN    SUNNY     32  28  85 SW6       29.98F WCI  26
$$

COZ086-089-092>099-151500-
...SOUTHEAST COLORADO...

CITY           SKY/WX    TMP DP  RH WIND       PRES   REMARKS
PUEBLO         MOSUNNY   31  27  85 W5        30.07F WCI  26
LA JUNTA       SUNNY     33  25  72 SW9       30.08F WCI  25
LAMAR          SUNNY     34  26  72 W9        30.08F WCI  27
SPRINGFIELD      N/A     33  25  72 SW10      30.09F WCI  25
$$



USA.gov is the U.S. government's official web portal to all federal, state and local government web resources and services.